Terminal Aerodrome Forecast
Issued by NWS

Home | Current Version | Previous Version | Text Only | Print | Product List | Glossary On
Versions: 1 2 3 4 5 6 7 8 9 10 11 12 13 14 15 16 17 18 19 20 21 22 23 24 25 26 27 28 29 30 31 32 33 34 35 36 37 38 39 40 41 42 43 44 45 46 47 48 49 50
000
FTUS43 KDMX 221139
TAFFOD
TAF
KFOD 221139Z 2212/2312 16013KT 4SM -RA BR OVC005
     FM221500 15012KT 2SM -RA BR OVC004
     FM222000 11012KT 4SM -RA BR OVC005
     FM230400 09008KT 3SM -RASN BR OVC002
     FM230900 01008KT 2SM -SN BR OVC003=

USA.gov is the U.S. government's official web portal to all federal, state and local government web resources and services.